Flag for Canada Weather past 2 weeks in Gander, Newfoundland and Labrador, Canada

14 °F


Feels Like: -4 °F
Forecast: 13 / 20 °F
Wind: 20 mph from Northwest

Location: Gander Int. Airport

Current Time: Nov 30, 2015 at 5:13:24 AM

Latest Report: Nov 30, 2015 at 4:30 AM

Visibility: 15 mi

Pressure: 29.96 "Hg

Humidity: 67%

Dew point: 5 °F

Location of GanderLocation

Historic Weather in Gander — Graph


Gander temperature yesterday

Maximum temperature yesterday: 28 °F (at 2:30 PM)
Minimum temperature yesterday: 16 °F (at 11:30 PM)
Average temperature yesterday: 24 °F

Past Weeks' High & Low Weather Summary

High54 °F (Nov 23, 1:30 PM)100% (Nov 15, 5:15 AM)30.93 "Hg (Nov 15, 5:15 AM)
Low14 °F (Nov 30, 3:30 AM)59% (Nov 25, 11:30 AM)29.39 "Hg (Nov 15, 5:15 AM)
Average33 °F87%30.16 "Hg
* Reported Nov 15 3:30 AM — Nov 30 3:30 AM, Gander, Weather by CustomWeather, © 2015

Note: Actual official high and low records may vary slightly from our data, if they occured in-between our weather recording intervals... More about our weather records


Gander weather history for previous 24 hours

Time TempWeatherWind HumidityBarometerVisibility
3:30 AM
Mon, Nov 30
14 °FSnow flurries. Passing clouds.14 mph79%29.94 "Hg15 mi
2:30 AM16 °FPassing clouds.20 mph73%29.93 "Hg15 mi
1:30 AM16 °FMostly cloudy.12 mph73%29.91 "Hg15 mi
12:30 AM16 °FSnow flurries. Passing clouds.15 mph73%29.90 "Hg15 mi
11:30 PM
Sun, Nov 29
16 °FSnow flurries. Overcast.16 mph79%29.90 "Hg6 mi
10:30 PM19 °FSnow flurries. Overcast.13 mph79%29.89 "Hg2 mi
10:19 PM18 °FSnow flurries. Overcast.16 mph86%29.89 "Hg2 mi
9:30 PM19 °FSnow flurries. Overcast.15 mph79%29.89 "Hg3 mi
8:30 PM19 °FSnow flurries. Mostly cloudy.16 mph86%29.87 "Hg2 mi
7:30 PM21 °FSnow flurries. Mostly cloudy.9 mph86%29.86 "Hg2 mi
6:30 PM23 °FSnow flurries. Overcast.7 mph86%29.85 "Hg2 mi
5:30 PM23 °FSnow flurries. Mostly cloudy.10 mph86%29.84 "Hg2 mi
4:30 PM25 °FSnow flurries. Low clouds.20 mph80%29.82 "Hg1 mi
4:25 PM27 °FSnow flurries. Low clouds.13 mph80%29.81 "Hg1 mi
3:30 PM28 °FSnow flurries. Partly sunny.12 mph74%29.80 "Hg15 mi
2:30 PM28 °FPartly sunny.13 mph74%29.80 "Hg20 mi
1:30 PM27 °FPartly sunny.8 mph74%29.82 "Hg20 mi
12:30 PM27 °FPartly sunny.12 mph74%29.84 "Hg20 mi
11:30 AM27 °FPartly sunny.13 mph74%29.86 "Hg20 mi
10:30 AM27 °FPartly sunny.18 mph74%29.88 "Hg20 mi
9:30 AM27 °FSnow flurries. Partly sunny.12 mph86%29.89 "Hg10 mi
8:30 AM27 °FPartly sunny.9 mph80%29.89 "Hg15 mi
7:30 AM25 °FPartly sunny.6 mph86%29.88 "Hg20 mi
6:30 AM25 °FSnow flurries. Partly cloudy.8 mph93%29.90 "Hg8 mi
6:19 AM25 °FSnow flurries. Overcast.7 mph93%29.90 "Hg5 mi
5:30 AM25 °FSnow flurries. Ice fog.6 mph93%29.90 "Hg3 mi
Weather by CustomWeather, © 2015

See weather overviewHow to use our weather pages